Time,TemperatureF,DewpointF,PressureIn,WindDirection,WindDirectionDegrees,WindSpeedMPH,WindSpeedGustMPH,Humidity,HourlyPrecipIn,Conditions,Clouds,dailyrainin,SoftwareType,DateUTC
2013-09-21 00:00:00,52.0,44.3,29.76,N/A,-737280,0.0,-999.0,75,0.00,,,0.00,Wunderground v.1.15,2013-09-21 06:00:00,
2013-09-21 00:05:00,52.0,44.3,29.76,N/A,-737280,0.0,-999.0,75,0.00,,,0.00,Wunderground v.1.15,2013-09-21 06:05:00,
2013-09-21 00:10:00,52.0,44.3,29.76,N/A,-737280,0.0,-999.0,75,0.00,,,0.00,Wunderground v.1.15,2013-09-21 06:10:00,
2013-09-21 00:15:00,52.6,44.5,29.76,N/A,-737280,0.0,-999.0,74,0.00,,,0.00,Wunderground v.1.15,2013-09-21 06:15:00,
2013-09-21 00:20:00,52.6,44.5,29.76,N/A,-737280,0.0,-999.0,74,0.00,,,0.00,Wunderground v.1.15,2013-09-21 06:20:00,
2013-09-21 00:25:00,52.5,44.4,29.76,N/A,-737280,0.0,-999.0,74,0.00,,,0.00,Wunderground v.1.15,2013-09-21 06:25:00,
2013-09-21 00:30:00,52.5,44.4,29.76,N/A,-737280,0.0,-999.0,74,0.00,,,0.00,Wunderground v.1.15,2013-09-21 06:30:00,
2013-09-21 00:35:00,53.0,44.2,29.75,N/A,-737280,0.0,-999.0,72,0.00,,,0.00,Wunderground v.1.15,2013-09-21 06:35:00,
2013-09-21 00:40:00,53.0,44.2,29.75,N/A,-737280,0.0,-999.0,72,0.00,,,0.00,Wunderground v.1.15,2013-09-21 06:40:00,
2013-09-21 00:45:00,52.7,44.3,29.76,N/A,-737280,0.0,-999.0,73,0.00,,,0.00,Wunderground v.1.15,2013-09-21 06:45:00,
2013-09-21 00:50:00,52.7,44.3,29.76,N/A,-737280,0.0,-999.0,73,0.00,,,0.00,Wunderground v.1.15,2013-09-21 06:50:00,
2013-09-21 00:55:00,51.7,43.7,29.76,N/A,-737280,0.0,-999.0,74,0.00,,,0.00,Wunderground v.1.15,2013-09-21 06:55:00,
2013-09-21 01:00:00,51.7,43.7,29.76,N/A,-737280,0.0,-999.0,74,0.00,,,0.00,Wunderground v.1.15,2013-09-21 07:00:00,
2013-09-21 01:05:00,51.2,43.9,29.75,NE,45,0.0,-999.0,76,0.00,,,0.00,Wunderground v.1.15,2013-09-21 07:05:00,
2013-09-21 01:10:00,51.2,43.9,29.75,NE,45,0.0,-999.0,76,0.00,,,0.00,Wunderground v.1.15,2013-09-21 07:10:00,
2013-09-21 01:15:00,50.5,43.6,29.75,N/A,-737280,0.0,-999.0,77,0.00,,,0.00,Wunderground v.1.15,2013-09-21 07:15:00,
2013-09-21 01:20:00,50.5,43.6,29.75,N/A,-737280,0.0,-999.0,77,0.00,,,0.00,Wunderground v.1.15,2013-09-21 07:20:00,
2013-09-21 01:25:00,51.0,43.7,29.74,N/A,-737280,0.0,-999.0,76,0.00,,,0.00,Wunderground v.1.15,2013-09-21 07:25:00,
2013-09-21 01:30:00,51.0,43.7,29.74,N/A,-737280,0.0,-999.0,76,0.00,,,0.00,Wunderground v.1.15,2013-09-21 07:30:00,
2013-09-21 01:35:00,50.7,43.4,29.74,N/A,-737280,0.0,-999.0,76,0.00,,,0.00,Wunderground v.1.15,2013-09-21 07:35:00,
2013-09-21 01:40:00,50.7,43.4,29.74,N/A,-737280,0.0,-999.0,76,0.00,,,0.00,Wunderground v.1.15,2013-09-21 07:40:00,
2013-09-21 01:45:00,49.6,42.7,29.75,N/A,-737280,0.0,-999.0,77,0.00,,,0.00,Wunderground v.1.15,2013-09-21 07:45:00,
2013-09-21 01:50:00,49.6,42.7,29.75,N/A,-737280,0.0,-999.0,77,0.00,,,0.00,Wunderground v.1.15,2013-09-21 07:50:00,
2013-09-21 01:55:00,49.0,42.8,29.76,N/A,-737280,0.0,-999.0,79,0.00,,,0.00,Wunderground v.1.15,2013-09-21 07:55:00,
2013-09-21 02:00:00,49.0,42.8,29.76,N/A,-737280,0.0,-999.0,79,0.00,,,0.00,Wunderground v.1.15,2013-09-21 08:00:00,
2013-09-21 02:05:00,48.7,42.5,29.75,N/A,-737280,0.0,-999.0,79,0.00,,,0.00,Wunderground v.1.15,2013-09-21 08:05:00,
2013-09-21 02:10:00,48.7,42.5,29.75,N/A,-737280,0.0,-999.0,79,0.00,,,0.00,Wunderground v.1.15,2013-09-21 08:10:00,
2013-09-21 02:15:00,48.2,42.6,29.75,N/A,-737280,0.0,-999.0,81,0.00,,,0.00,Wunderground v.1.15,2013-09-21 08:15:00,
2013-09-21 02:20:00,48.2,42.6,29.75,N/A,-737280,0.0,-999.0,81,0.00,,,0.00,Wunderground v.1.15,2013-09-21 08:20:00,
2013-09-21 02:25:00,48.3,42.7,29.75,N/A,-737280,0.0,-999.0,81,0.00,,,0.00,Wunderground v.1.15,2013-09-21 08:25:00,
2013-09-21 02:30:00,48.3,42.7,29.75,N/A,-737280,0.0,-999.0,81,0.00,,,0.00,Wunderground v.1.15,2013-09-21 08:30:00,
2013-09-21 02:35:00,48.3,42.7,29.75,N/A,-737280,0.0,-999.0,81,0.00,,,0.00,Wunderground v.1.15,2013-09-21 08:35:00,
2013-09-21 02:40:00,48.3,42.7,29.75,N/A,-737280,0.0,-999.0,81,0.00,,,0.00,Wunderground v.1.15,2013-09-21 08:40:00,
2013-09-21 02:45:00,48.8,42.9,29.74,N/A,-737280,0.0,-999.0,80,0.00,,,0.00,Wunderground v.1.15,2013-09-21 08:45:00,
2013-09-21 02:50:00,48.8,42.9,29.74,N/A,-737280,0.0,-999.0,80,0.00,,,0.00,Wunderground v.1.15,2013-09-21 08:50:00,
2013-09-21 02:55:00,48.7,42.8,29.74,N/A,-737280,0.0,-999.0,80,0.00,,,0.00,Wunderground v.1.15,2013-09-21 08:55:00,
2013-09-21 03:00:00,48.7,42.8,29.74,N/A,-737280,0.0,-999.0,80,0.00,,,0.00,Wunderground v.1.15,2013-09-21 09:00:00,
2013-09-21 03:05:00,48.8,42.9,29.73,N/A,-737280,0.0,-999.0,80,0.00,,,0.00,Wunderground v.1.15,2013-09-21 09:05:00,
2013-09-21 03:10:00,48.8,42.9,29.73,N/A,-737280,0.0,-999.0,80,0.00,,,0.00,Wunderground v.1.15,2013-09-21 09:10:00,
2013-09-21 03:15:00,49.6,43.0,29.73,N/A,-737280,0.0,-999.0,78,0.00,,,0.00,Wunderground v.1.15,2013-09-21 09:15:00,
2013-09-21 03:20:00,49.6,43.0,29.73,N/A,-737280,0.0,-999.0,78,0.00,,,0.00,Wunderground v.1.15,2013-09-21 09:20:00,
2013-09-21 03:25:00,50.4,43.1,29.73,N/A,-737280,0.0,-999.0,76,0.00,,,0.00,Wunderground v.1.15,2013-09-21 09:25:00,
2013-09-21 03:30:00,50.4,43.1,29.73,N/A,-737280,0.0,-999.0,76,0.00,,,0.00,Wunderground v.1.15,2013-09-21 09:30:00,
2013-09-21 03:35:00,49.6,43.0,29.73,N/A,-737280,0.0,-999.0,78,0.00,,,0.00,Wunderground v.1.15,2013-09-21 09:35:00,
2013-09-21 03:40:00,49.6,43.0,29.73,N/A,-737280,0.0,-999.0,78,0.00,,,0.00,Wunderground v.1.15,2013-09-21 09:40:00,
2013-09-21 03:45:00,49.8,43.9,29.73,N/A,-737280,0.0,-999.0,80,0.00,,,0.00,Wunderground v.1.15,2013-09-21 09:45:00,
2013-09-21 03:50:00,49.8,43.9,29.73,N/A,-737280,0.0,-999.0,80,0.00,,,0.00,Wunderground v.1.15,2013-09-21 09:50:00,
2013-09-21 03:55:00,49.8,43.5,29.73,N/A,-737280,0.0,-999.0,79,0.00,,,0.00,Wunderground v.1.15,2013-09-21 09:55:00,
2013-09-21 04:00:00,49.8,43.5,29.73,N/A,-737280,0.0,-999.0,79,0.00,,,0.00,Wunderground v.1.15,2013-09-21 10:00:00,
2013-09-21 04:05:00,49.6,43.7,29.74,N/A,-737280,0.0,-999.0,80,0.00,,,0.00,Wunderground v.1.15,2013-09-21 10:05:00,
2013-09-21 04:10:00,49.6,43.7,29.74,N/A,-737280,0.0,-999.0,80,0.00,,,0.00,Wunderground v.1.15,2013-09-21 10:10:00,
2013-09-21 04:15:00,49.5,43.6,29.74,N/A,-737280,0.0,-999.0,80,0.00,,,0.00,Wunderground v.1.15,2013-09-21 10:15:00,
2013-09-21 04:20:00,49.5,43.6,29.74,N/A,-737280,0.0,-999.0,80,0.00,,,0.00,Wunderground v.1.15,2013-09-21 10:20:00,
2013-09-21 04:25:00,49.8,44.2,29.74,N/A,-737280,0.0,-999.0,81,0.00,,,0.00,Wunderground v.1.15,2013-09-21 10:25:00,
2013-09-21 04:30:00,49.8,44.2,29.74,N/A,-737280,0.0,-999.0,81,0.00,,,0.00,Wunderground v.1.15,2013-09-21 10:30:00,
2013-09-21 04:35:00,49.9,44.3,29.74,N/A,-737280,0.0,-999.0,81,0.00,,,0.00,Wunderground v.1.15,2013-09-21 10:35:00,
2013-09-21 04:40:00,49.9,44.3,29.74,N/A,-737280,0.0,-999.0,81,0.00,,,0.00,Wunderground v.1.15,2013-09-21 10:40:00,
2013-09-21 04:45:00,49.9,44.6,29.74,N/A,-737280,0.0,-999.0,82,0.00,,,0.00,Wunderground v.1.15,2013-09-21 10:45:00,
2013-09-21 04:50:00,49.9,44.6,29.74,N/A,-737280,0.0,-999.0,82,0.00,,,0.00,Wunderground v.1.15,2013-09-21 10:50:00,
2013-09-21 04:55:00,50.3,44.7,29.74,N/A,-737280,0.0,-999.0,81,0.00,,,0.00,Wunderground v.1.15,2013-09-21 10:55:00,
2013-09-21 05:00:00,50.3,44.7,29.74,N/A,-737280,0.0,-999.0,81,0.00,,,0.00,Wunderground v.1.15,2013-09-21 11:00:00,
2013-09-21 05:05:00,50.2,44.6,29.74,N/A,-737280,0.0,-999.0,81,0.00,,,0.00,Wunderground v.1.15,2013-09-21 11:05:00,
2013-09-21 05:10:00,50.2,44.6,29.74,N/A,-737280,0.0,-999.0,81,0.00,,,0.00,Wunderground v.1.15,2013-09-21 11:10:00,
2013-09-21 05:15:00,50.1,44.2,29.75,N/A,-737280,0.0,-999.0,80,0.00,,,0.00,Wunderground v.1.15,2013-09-21 11:15:00,
2013-09-21 05:20:00,50.1,44.2,29.75,N/A,-737280,0.0,-999.0,80,0.00,,,0.00,Wunderground v.1.15,2013-09-21 11:20:00,
2013-09-21 05:25:00,50.4,44.5,29.74,N/A,-737280,0.0,-999.0,80,0.00,,,0.00,Wunderground v.1.15,2013-09-21 11:25:00,
2013-09-21 05:30:00,50.4,44.5,29.74,N/A,-737280,0.0,-999.0,80,0.00,,,0.00,Wunderground v.1.15,2013-09-21 11:30:00,
2013-09-21 05:35:00,50.8,44.5,29.74,N/A,-737280,0.0,-999.0,79,0.00,,,0.00,Wunderground v.1.15,2013-09-21 11:35:00,
2013-09-21 05:40:00,50.8,44.5,29.74,N/A,-737280,0.0,-999.0,79,0.00,,,0.00,Wunderground v.1.15,2013-09-21 11:40:00,
2013-09-21 05:45:00,50.5,44.2,29.75,N/A,-737280,0.0,-999.0,79,0.00,,,0.00,Wunderground v.1.15,2013-09-21 11:45:00,
2013-09-21 05:50:00,50.5,44.2,29.75,N/A,-737280,0.0,-999.0,79,0.00,,,0.00,Wunderground v.1.15,2013-09-21 11:50:00,
2013-09-21 05:55:00,50.2,44.3,29.75,N/A,-737280,0.0,-999.0,80,0.00,,,0.00,Wunderground v.1.15,2013-09-21 11:55:00,
2013-09-21 06:00:00,50.2,44.3,29.75,N/A,-737280,0.0,-999.0,80,0.00,,,0.00,Wunderground v.1.15,2013-09-21 12:00:00,
2013-09-21 06:05:00,50.8,44.9,29.75,NNE,23,1.0,-999.0,80,0.00,,,0.00,Wunderground v.1.15,2013-09-21 12:05:00,
2013-09-21 06:10:00,50.8,44.9,29.75,NNE,23,1.0,-999.0,80,0.00,,,0.00,Wunderground v.1.15,2013-09-21 12:10:00,
2013-09-21 06:15:00,50.7,44.8,29.75,WNW,293,0.0,-999.0,80,0.00,,,0.00,Wunderground v.1.15,2013-09-21 12:15:00,
2013-09-21 06:20:00,50.7,44.8,29.75,WNW,293,0.0,-999.0,80,0.00,,,0.00,Wunderground v.1.15,2013-09-21 12:20:00,
2013-09-21 06:25:00,50.4,44.8,29.76,N/A,-737280,0.0,-999.0,81,0.00,,,0.00,Wunderground v.1.15,2013-09-21 12:25:00,
2013-09-21 06:30:00,50.4,44.8,29.76,N/A,-737280,0.0,-999.0,81,0.00,,,0.00,Wunderground v.1.15,2013-09-21 12:30:00,
2013-09-21 06:35:00,50.3,44.7,29.77,N/A,-737280,0.0,-999.0,81,0.00,,,0.00,Wunderground v.1.15,2013-09-21 12:35:00,
2013-09-21 06:40:00,50.3,44.7,29.77,N/A,-737280,0.0,-999.0,81,0.00,,,0.00,Wunderground v.1.15,2013-09-21 12:40:00,
2013-09-21 06:45:00,50.1,44.5,29.77,WNW,293,0.0,-999.0,81,0.00,,,0.00,Wunderground v.1.15,2013-09-21 12:45:00,
2013-09-21 06:50:00,50.1,44.5,29.77,WNW,293,0.0,-999.0,81,0.00,,,0.00,Wunderground v.1.15,2013-09-21 12:50:00,
2013-09-21 06:55:00,50.5,44.9,29.76,NNE,23,0.0,-999.0,81,0.00,,,0.00,Wunderground v.1.15,2013-09-21 12:55:00,
2013-09-21 07:00:00,50.5,44.9,29.76,NNE,23,0.0,-999.0,81,0.00,,,0.00,Wunderground v.1.15,2013-09-21 13:00:00,
2013-09-21 07:05:00,50.1,44.5,29.81,N/A,-737280,0.0,-999.0,81,0.00,,,0.00,Wunderground v.1.15,2013-09-21 13:05:00,
2013-09-21 07:10:00,50.1,44.5,29.81,N/A,-737280,0.0,-999.0,81,0.00,,,0.00,Wunderground v.1.15,2013-09-21 13:10:00,
2013-09-21 07:15:00,49.7,44.4,29.82,N/A,-737280,0.0,-999.0,82,0.00,,,0.00,Wunderground v.1.15,2013-09-21 13:15:00,
2013-09-21 07:20:00,49.7,44.4,29.82,N/A,-737280,0.0,-999.0,82,0.00,,,0.00,Wunderground v.1.15,2013-09-21 13:20:00,
2013-09-21 07:25:00,49.7,44.4,29.82,N/A,-737280,0.0,-999.0,82,0.00,,,0.00,Wunderground v.1.15,2013-09-21 13:25:00,
2013-09-21 07:30:00,49.7,44.4,29.82,N/A,-737280,0.0,-999.0,82,0.00,,,0.00,Wunderground v.1.15,2013-09-21 13:30:00,
2013-09-21 07:35:00,49.8,44.5,29.82,N/A,-737280,0.0,-999.0,82,0.00,,,0.00,Wunderground v.1.15,2013-09-21 13:35:00,
2013-09-21 07:40:00,49.8,44.5,29.82,N/A,-737280,0.0,-999.0,82,0.00,,,0.00,Wunderground v.1.15,2013-09-21 13:40:00,
2013-09-21 07:45:00,49.8,44.5,29.83,N/A,-737280,0.0,-999.0,82,0.00,,,0.00,Wunderground v.1.15,2013-09-21 13:45:00,
2013-09-21 07:50:00,49.8,44.5,29.83,N/A,-737280,0.0,-999.0,82,0.00,,,0.00,Wunderground v.1.15,2013-09-21 13:50:00,
2013-09-21 07:55:00,50.4,45.4,29.83,NNE,23,0.0,-999.0,83,0.00,,,0.00,Wunderground v.1.15,2013-09-21 13:55:00,
2013-09-21 08:00:00,50.4,45.4,29.83,NNE,23,0.0,-999.0,83,0.00,,,0.00,Wunderground v.1.15,2013-09-21 14:00:00,
2013-09-21 08:05:00,51.4,45.8,29.85,N/A,-737280,0.0,-999.0,81,0.00,,,0.00,Wunderground v.1.15,2013-09-21 14:05:00,
2013-09-21 08:10:00,51.4,45.8,29.85,N/A,-737280,0.0,-999.0,81,0.00,,,0.00,Wunderground v.1.15,2013-09-21 14:10:00,
2013-09-21 08:15:00,52.8,47.1,29.84,N/A,-737280,0.0,-999.0,81,0.00,,,0.00,Wunderground v.1.15,2013-09-21 14:15:00,
2013-09-21 08:20:00,52.8,47.1,29.84,N/A,-737280,0.0,-999.0,81,0.00,,,0.00,Wunderground v.1.15,2013-09-21 14:20:00,
2013-09-21 08:25:00,54.9,47.8,29.83,N/A,-737280,0.0,-999.0,77,0.00,,,0.00,Wunderground v.1.15,2013-09-21 14:25:00,
2013-09-21 08:30:00,54.9,47.8,29.83,N/A,-737280,0.0,-999.0,77,0.00,,,0.00,Wunderground v.1.15,2013-09-21 14:30:00,
2013-09-21 08:35:00,55.8,48.0,29.83,N/A,-737280,0.0,-999.0,75,0.00,,,0.00,Wunderground v.1.15,2013-09-21 14:35:00,
2013-09-21 08:40:00,55.8,48.0,29.83,N/A,-737280,0.0,-999.0,75,0.00,,,0.00,Wunderground v.1.15,2013-09-21 14:40:00,
2013-09-21 08:45:00,56.9,48.3,29.82,N/A,-737280,0.0,-999.0,73,0.00,,,0.00,Wunderground v.1.15,2013-09-21 14:45:00,
2013-09-21 08:50:00,56.9,48.3,29.82,N/A,-737280,0.0,-999.0,73,0.00,,,0.00,Wunderground v.1.15,2013-09-21 14:50:00,
2013-09-21 08:55:00,58.5,48.4,29.82,N/A,-737280,0.0,-999.0,69,0.00,,,0.00,Wunderground v.1.15,2013-09-21 14:55:00,
2013-09-21 09:00:00,58.5,48.4,29.82,N/A,-737280,0.0,-999.0,69,0.00,,,0.00,Wunderground v.1.15,2013-09-21 15:00:00,
2013-09-21 09:05:00,59.9,47.3,29.83,NNE,23,0.0,-999.0,63,0.00,,,0.00,Wunderground v.1.15,2013-09-21 15:05:00,
2013-09-21 09:10:00,59.9,47.3,29.83,NNE,23,0.0,-999.0,63,0.00,,,0.00,Wunderground v.1.15,2013-09-21 15:10:00,
2013-09-21 09:15:00,61.2,46.3,29.82,NNE,23,0.0,-999.0,58,0.00,,,0.00,Wunderground v.1.15,2013-09-21 15:15:00,
2013-09-21 09:20:00,61.2,46.3,29.82,NNE,23,0.0,-999.0,58,0.00,,,0.00,Wunderground v.1.15,2013-09-21 15:20:00,
2013-09-21 09:25:00,62.7,46.8,29.81,West,270,1.0,-999.0,56,0.00,,,0.00,Wunderground v.1.15,2013-09-21 15:25:00,
2013-09-21 09:30:00,62.7,46.8,29.81,West,270,1.0,-999.0,56,0.00,,,0.00,Wunderground v.1.15,2013-09-21 15:30:00,
2013-09-21 09:35:00,63.5,47.0,29.82,West,270,1.0,-999.0,55,0.00,,,0.00,Wunderground v.1.15,2013-09-21 15:35:00,
2013-09-21 09:40:00,63.5,47.0,29.82,West,270,1.0,-999.0,55,0.00,,,0.00,Wunderground v.1.15,2013-09-21 15:40:00,
2013-09-21 09:45:00,65.3,47.2,29.81,West,270,0.0,-999.0,52,0.00,,,0.00,Wunderground v.1.15,2013-09-21 15:45:00,
2013-09-21 09:50:00,65.3,47.2,29.81,West,270,0.0,-999.0,52,0.00,,,0.00,Wunderground v.1.15,2013-09-21 15:50:00,
2013-09-21 09:55:00,66.3,47.1,29.81,WNW,293,0.0,-999.0,50,0.00,,,0.00,Wunderground v.1.15,2013-09-21 15:55:00,
2013-09-21 10:00:00,66.3,47.1,29.81,WNW,293,0.0,-999.0,50,0.00,,,0.00,Wunderground v.1.15,2013-09-21 16:00:00,
2013-09-21 10:05:00,66.7,46.4,29.81,West,270,2.0,-999.0,48,0.00,,,0.00,Wunderground v.1.15,2013-09-21 16:05:00,
2013-09-21 10:10:00,66.7,46.4,29.81,West,270,2.0,-999.0,48,0.00,,,0.00,Wunderground v.1.15,2013-09-21 16:10:00,
2013-09-21 10:15:00,67.4,45.3,29.80,SSW,203,0.0,-999.0,45,0.00,,,0.00,Wunderground v.1.15,2013-09-21 16:15:00,
2013-09-21 10:20:00,67.4,45.3,29.80,SSW,203,0.0,-999.0,45,0.00,,,0.00,Wunderground v.1.15,2013-09-21 16:20:00,
2013-09-21 10:25:00,68.7,46.5,29.79,South,180,1.0,-999.0,45,0.00,,,0.00,Wunderground v.1.15,2013-09-21 16:25:00,
2013-09-21 10:30:00,68.7,46.5,29.79,South,180,1.0,-999.0,45,0.00,,,0.00,Wunderground v.1.15,2013-09-21 16:30:00,
2013-09-21 10:35:00,69.9,46.4,29.80,South,180,0.0,-999.0,43,0.00,,,0.00,Wunderground v.1.15,2013-09-21 16:35:00,
2013-09-21 10:40:00,69.9,46.4,29.80,South,180,0.0,-999.0,43,0.00,,,0.00,Wunderground v.1.15,2013-09-21 16:40:00,
2013-09-21 10:45:00,71.0,46.7,29.78,South,180,0.0,-999.0,42,0.00,,,0.00,Wunderground v.1.15,2013-09-21 16:45:00,
2013-09-21 10:50:00,71.0,46.7,29.78,South,180,0.0,-999.0,42,0.00,,,0.00,Wunderground v.1.15,2013-09-21 16:50:00,
2013-09-21 10:55:00,72.8,46.4,29.77,SSE,158,0.0,-999.0,39,0.00,,,0.00,Wunderground v.1.15,2013-09-21 16:55:00,
2013-09-21 11:00:00,72.8,46.4,29.77,SSE,158,0.0,-999.0,39,0.00,,,0.00,Wunderground v.1.15,2013-09-21 17:00:00,
2013-09-21 11:05:00,74.1,48.9,29.78,N/A,-737280,0.0,-999.0,41,0.00,,,0.00,Wunderground v.1.15,2013-09-21 17:05:00,
2013-09-21 11:10:00,74.1,48.9,29.78,N/A,-737280,0.0,-999.0,41,0.00,,,0.00,Wunderground v.1.15,2013-09-21 17:10:00,
2013-09-21 11:15:00,75.2,46.4,29.77,NE,45,0.0,-999.0,36,0.00,,,0.00,Wunderground v.1.15,2013-09-21 17:15:00,
2013-09-21 11:20:00,75.2,46.4,29.77,NE,45,0.0,-999.0,36,0.00,,,0.00,Wunderground v.1.15,2013-09-21 17:20:00,
2013-09-21 11:25:00,75.9,48.5,29.76,N/A,-737280,0.0,-999.0,38,0.00,,,0.00,Wunderground v.1.15,2013-09-21 17:25:00,
2013-09-21 11:30:00,75.9,48.5,29.76,N/A,-737280,0.0,-999.0,38,0.00,,,0.00,Wunderground v.1.15,2013-09-21 17:30:00,
2013-09-21 11:35:00,76.5,48.3,29.74,NW,315,0.0,-999.0,37,0.00,,,0.00,Wunderground v.1.15,2013-09-21 17:35:00,
2013-09-21 11:40:00,76.5,48.3,29.74,NW,315,0.0,-999.0,37,0.00,,,0.00,Wunderground v.1.15,2013-09-21 17:40:00,
2013-09-21 11:45:00,76.7,47.7,29.74,ESE,113,0.0,-999.0,36,0.00,,,0.00,Wunderground v.1.15,2013-09-21 17:45:00,
2013-09-21 11:50:00,76.7,47.7,29.74,ESE,113,0.0,-999.0,36,0.00,,,0.00,Wunderground v.1.15,2013-09-21 17:50:00,
2013-09-21 11:55:00,77.1,46.6,29.74,NNE,23,0.0,-999.0,34,0.00,,,0.00,Wunderground v.1.15,2013-09-21 17:55:00,
2013-09-21 12:00:00,77.1,46.6,29.74,NNE,23,0.0,-999.0,34,0.00,,,0.00,Wunderground v.1.15,2013-09-21 18:00:00,
2013-09-21 12:05:00,77.7,48.6,29.73,NE,45,0.0,-999.0,36,0.00,,,0.00,Wunderground v.1.15,2013-09-21 18:05:00,
2013-09-21 12:10:00,77.7,48.6,29.73,NE,45,0.0,-999.0,36,0.00,,,0.00,Wunderground v.1.15,2013-09-21 18:10:00,
2013-09-21 12:15:00,78.5,48.6,29.73,NNE,23,0.0,-999.0,35,0.00,,,0.00,Wunderground v.1.15,2013-09-21 18:15:00,
2013-09-21 12:20:00,78.5,48.6,29.73,NNE,23,0.0,-999.0,35,0.00,,,0.00,Wunderground v.1.15,2013-09-21 18:20:00,
2013-09-21 12:25:00,79.5,48.7,29.72,North,0,2.0,-999.0,34,0.00,,,0.00,Wunderground v.1.15,2013-09-21 18:25:00,
2013-09-21 12:30:00,79.5,48.7,29.72,North,0,2.0,-999.0,34,0.00,,,0.00,Wunderground v.1.15,2013-09-21 18:30:00,
2013-09-21 12:35:00,80.1,46.7,29.70,NNW,338,2.0,-999.0,31,0.00,,,0.00,Wunderground v.1.15,2013-09-21 18:35:00,
2013-09-21 12:40:00,80.1,46.7,29.70,NNW,338,2.0,-999.0,31,0.00,,,0.00,Wunderground v.1.15,2013-09-21 18:40:00,
2013-09-21 12:45:00,81.1,49.3,29.69,NW,315,2.0,-999.0,33,0.00,,,0.00,Wunderground v.1.15,2013-09-21 18:45:00,
2013-09-21 12:50:00,81.1,49.3,29.69,NW,315,2.0,-999.0,33,0.00,,,0.00,Wunderground v.1.15,2013-09-21 18:50:00,
2013-09-21 12:55:00,82.0,49.2,29.68,NNW,338,3.0,-999.0,32,0.00,,,0.00,Wunderground v.1.15,2013-09-21 18:55:00,
2013-09-21 13:00:00,82.0,49.2,29.68,NNW,338,3.0,-999.0,32,0.00,,,0.00,Wunderground v.1.15,2013-09-21 19:00:00,
2013-09-21 13:05:00,82.5,48.8,29.69,West,270,2.0,-999.0,31,0.00,,,0.00,Wunderground v.1.15,2013-09-21 19:05:00,
2013-09-21 13:10:00,82.5,48.8,29.69,West,270,2.0,-999.0,31,0.00,,,0.00,Wunderground v.1.15,2013-09-21 19:10:00,
2013-09-21 13:15:00,82.1,48.5,29.69,West,270,7.0,-999.0,31,0.00,,,0.00,Wunderground v.1.15,2013-09-21 19:15:00,
2013-09-21 13:20:00,82.1,48.5,29.69,West,270,7.0,-999.0,31,0.00,,,0.00,Wunderground v.1.15,2013-09-21 19:20:00,
2013-09-21 13:25:00,82.9,48.3,29.67,WNW,293,1.0,-999.0,30,0.00,,,0.00,Wunderground v.1.15,2013-09-21 19:25:00,
2013-09-21 13:30:00,82.9,48.3,29.67,WNW,293,1.0,-999.0,30,0.00,,,0.00,Wunderground v.1.15,2013-09-21 19:30:00,
2013-09-21 13:35:00,83.4,46.9,29.66,WSW,248,8.0,-999.0,28,0.00,,,0.00,Wunderground v.1.15,2013-09-21 19:35:00,
2013-09-21 13:40:00,83.4,46.9,29.66,WSW,248,8.0,-999.0,28,0.00,,,0.00,Wunderground v.1.15,2013-09-21 19:40:00,
2013-09-21 13:45:00,83.4,46.9,29.65,WSW,248,10.0,-999.0,28,0.00,,,0.00,Wunderground v.1.15,2013-09-21 19:45:00,
2013-09-21 13:50:00,83.4,46.9,29.65,WSW,248,10.0,-999.0,28,0.00,,,0.00,Wunderground v.1.15,2013-09-21 19:50:00,
2013-09-21 13:55:00,84.2,47.6,29.64,SW,225,8.0,-999.0,28,0.00,,,0.00,Wunderground v.1.15,2013-09-21 19:55:00,
2013-09-21 14:00:00,84.2,47.6,29.64,SW,225,8.0,-999.0,28,0.00,,,0.00,Wunderground v.1.15,2013-09-21 20:00:00,
2013-09-21 14:05:00,83.9,46.3,29.64,SW,225,10.0,-999.0,27,0.00,,,0.00,Wunderground v.1.15,2013-09-21 20:05:00,
2013-09-21 14:10:00,83.9,46.3,29.64,SW,225,10.0,-999.0,27,0.00,,,0.00,Wunderground v.1.15,2013-09-21 20:10:00,
2013-09-21 14:15:00,84.5,45.8,29.63,SW,225,7.0,-999.0,26,0.00,,,0.00,Wunderground v.1.15,2013-09-21 20:15:00,
2013-09-21 14:20:00,84.5,45.8,29.63,SW,225,7.0,-999.0,26,0.00,,,0.00,Wunderground v.1.15,2013-09-21 20:20:00,
2013-09-21 14:25:00,84.5,46.8,29.62,SW,225,7.0,-999.0,27,0.00,,,0.00,Wunderground v.1.15,2013-09-21 20:25:00,
2013-09-21 14:30:00,84.5,46.8,29.62,SW,225,7.0,-999.0,27,0.00,,,0.00,Wunderground v.1.15,2013-09-21 20:30:00,
2013-09-21 14:35:00,85.3,46.5,29.61,SW,225,7.0,-999.0,26,0.00,,,0.00,Wunderground v.1.15,2013-09-21 20:35:00,
2013-09-21 14:40:00,85.3,46.5,29.61,SW,225,7.0,-999.0,26,0.00,,,0.00,Wunderground v.1.15,2013-09-21 20:40:00,
2013-09-21 14:45:00,85.3,45.5,29.61,SW,225,9.0,-999.0,25,0.00,,,0.00,Wunderground v.1.15,2013-09-21 20:45:00,
2013-09-21 14:50:00,85.3,45.5,29.61,SW,225,9.0,-999.0,25,0.00,,,0.00,Wunderground v.1.15,2013-09-21 20:50:00,
2013-09-21 14:55:00,85.4,46.6,29.60,SW,225,6.0,-999.0,26,0.00,,,0.00,Wunderground v.1.15,2013-09-21 20:55:00,
2013-09-21 15:00:00,85.4,46.6,29.60,SW,225,6.0,-999.0,26,0.00,,,0.00,Wunderground v.1.15,2013-09-21 21:00:00,
2013-09-21 15:05:00,84.7,46.0,29.60,SW,225,10.0,-999.0,26,0.00,,,0.00,Wunderground v.1.15,2013-09-21 21:05:00,
2013-09-21 15:10:00,84.7,46.0,29.60,SW,225,10.0,-999.0,26,0.00,,,0.00,Wunderground v.1.15,2013-09-21 21:10:00,
2013-09-21 15:15:00,85.9,47.0,29.58,SSW,203,10.0,-999.0,26,0.00,,,0.00,Wunderground v.1.15,2013-09-21 21:15:00,
2013-09-21 15:20:00,85.9,47.0,29.58,SSW,203,10.0,-999.0,26,0.00,,,0.00,Wunderground v.1.15,2013-09-21 21:20:00,
2013-09-21 15:25:00,86.2,47.3,29.57,SSW,203,10.0,-999.0,26,0.00,,,0.00,Wunderground v.1.15,2013-09-21 21:25:00,
2013-09-21 15:30:00,86.2,47.3,29.57,SSW,203,10.0,-999.0,26,0.00,,,0.00,Wunderground v.1.15,2013-09-21 21:30:00,
2013-09-21 15:35:00,83.9,45.3,29.58,SW,225,7.0,-999.0,26,0.00,,,0.00,Wunderground v.1.15,2013-09-21 21:35:00,
2013-09-21 15:40:00,83.9,45.3,29.58,SW,225,7.0,-999.0,26,0.00,,,0.00,Wunderground v.1.15,2013-09-21 21:40:00,
2013-09-21 15:45:00,83.6,46.1,29.58,SW,225,6.0,-999.0,27,0.00,,,0.00,Wunderground v.1.15,2013-09-21 21:45:00,
2013-09-21 15:50:00,83.6,46.1,29.58,SW,225,6.0,-999.0,27,0.00,,,0.00,Wunderground v.1.15,2013-09-21 21:50:00,
2013-09-21 15:55:00,85.2,46.4,29.57,South,180,1.0,-999.0,26,0.00,,,0.00,Wunderground v.1.15,2013-09-21 21:55:00,
2013-09-21 16:00:00,85.2,46.4,29.57,South,180,1.0,-999.0,26,0.00,,,0.00,Wunderground v.1.15,2013-09-21 22:00:00,
2013-09-21 16:05:00,83.9,47.3,29.57,WSW,248,1.0,-999.0,28,0.00,,,0.00,Wunderground v.1.15,2013-09-21 22:05:00,
2013-09-21 16:10:00,83.9,47.3,29.57,WSW,248,1.0,-999.0,28,0.00,,,0.00,Wunderground v.1.15,2013-09-21 22:10:00,
2013-09-21 16:15:00,82.3,46.9,29.57,SW,225,2.0,-999.0,29,0.00,,,0.00,Wunderground v.1.15,2013-09-21 22:15:00,
2013-09-21 16:20:00,82.3,46.9,29.57,SW,225,2.0,-999.0,29,0.00,,,0.00,Wunderground v.1.15,2013-09-21 22:20:00,
2013-09-21 16:25:00,83.3,47.7,29.56,South,180,2.0,-999.0,29,0.00,,,0.00,Wunderground v.1.15,2013-09-21 22:25:00,
2013-09-21 16:30:00,83.3,47.7,29.56,South,180,2.0,-999.0,29,0.00,,,0.00,Wunderground v.1.15,2013-09-21 22:30:00,
2013-09-21 16:35:00,82.4,46.9,29.56,SSW,203,6.0,-999.0,29,0.00,,,0.00,Wunderground v.1.15,2013-09-21 22:35:00,
2013-09-21 16:40:00,82.4,46.9,29.56,SSW,203,6.0,-999.0,29,0.00,,,0.00,Wunderground v.1.15,2013-09-21 22:40:00,
2013-09-21 16:45:00,82.5,45.1,29.56,SSW,203,6.0,-999.0,27,0.00,,,0.00,Wunderground v.1.15,2013-09-21 22:45:00,
2013-09-21 16:50:00,82.5,45.1,29.56,SSW,203,6.0,-999.0,27,0.00,,,0.00,Wunderground v.1.15,2013-09-21 22:50:00,
2013-09-21 16:55:00,81.7,47.2,29.55,SSW,203,3.0,-999.0,30,0.00,,,0.00,Wunderground v.1.15,2013-09-21 22:55:00,
2013-09-21 17:00:00,81.7,47.2,29.55,SSW,203,3.0,-999.0,30,0.00,,,0.00,Wunderground v.1.15,2013-09-21 23:00:00,
2013-09-21 17:05:00,81.7,46.3,29.55,South,180,4.0,-999.0,29,0.00,,,0.00,Wunderground v.1.15,2013-09-21 23:05:00,
2013-09-21 17:10:00,81.7,46.3,29.55,South,180,4.0,-999.0,29,0.00,,,0.00,Wunderground v.1.15,2013-09-21 23:10:00,
2013-09-21 17:15:00,81.9,46.5,29.55,South,180,3.0,-999.0,29,0.00,,,0.00,Wunderground v.1.15,2013-09-21 23:15:00,
2013-09-21 17:20:00,81.9,46.5,29.55,South,180,3.0,-999.0,29,0.00,,,0.00,Wunderground v.1.15,2013-09-21 23:20:00,
2013-09-21 17:25:00,82.7,46.3,29.54,South,180,1.0,-999.0,28,0.00,,,0.00,Wunderground v.1.15,2013-09-21 23:25:00,
2013-09-21 17:30:00,82.7,46.3,29.54,South,180,1.0,-999.0,28,0.00,,,0.00,Wunderground v.1.15,2013-09-21 23:30:00,
2013-09-21 17:35:00,82.7,46.3,29.54,South,180,1.0,-999.0,28,0.00,,,0.00,Wunderground v.1.15,2013-09-21 23:35:00,
2013-09-21 17:40:00,82.7,46.3,29.54,South,180,1.0,-999.0,28,0.00,,,0.00,Wunderground v.1.15,2013-09-21 23:40:00,
2013-09-21 17:45:00,81.8,47.3,29.53,South,180,2.0,-999.0,30,0.00,,,0.00,Wunderground v.1.15,2013-09-21 23:45:00,
2013-09-21 17:50:00,81.8,47.3,29.53,South,180,2.0,-999.0,30,0.00,,,0.00,Wunderground v.1.15,2013-09-21 23:50:00,
2013-09-21 17:55:00,82.1,47.6,29.53,South,180,1.0,-999.0,30,0.00,,,0.00,Wunderground v.1.15,2013-09-21 23:55:00,
2013-09-21 18:00:00,82.1,47.6,29.53,South,180,1.0,-999.0,30,0.00,,,0.00,Wunderground v.1.15,2013-09-22 00:00:00,
2013-09-21 18:05:00,82.9,49.2,29.51,South,180,1.0,-999.0,31,0.00,,,0.00,Wunderground v.1.15,2013-09-22 00:05:00,
2013-09-21 18:10:00,82.9,49.2,29.51,South,180,1.0,-999.0,31,0.00,,,0.00,Wunderground v.1.15,2013-09-22 00:10:00,
2013-09-21 18:15:00,83.9,49.1,29.51,South,180,0.0,-999.0,30,0.00,,,0.00,Wunderground v.1.15,2013-09-22 00:15:00,
2013-09-21 18:20:00,83.9,49.1,29.51,South,180,0.0,-999.0,30,0.00,,,0.00,Wunderground v.1.15,2013-09-22 00:20:00,
2013-09-21 18:25:00,84.3,48.6,29.50,South,180,0.0,-999.0,29,0.00,,,0.00,Wunderground v.1.15,2013-09-22 00:25:00,
2013-09-21 18:30:00,84.3,48.6,29.50,South,180,0.0,-999.0,29,0.00,,,0.00,Wunderground v.1.15,2013-09-22 00:30:00,
2013-09-21 18:35:00,83.5,48.8,29.50,N/A,-737280,0.0,-999.0,30,0.00,,,0.00,Wunderground v.1.15,2013-09-22 00:35:00,
2013-09-21 18:40:00,83.5,48.8,29.50,N/A,-737280,0.0,-999.0,30,0.00,,,0.00,Wunderground v.1.15,2013-09-22 00:40:00,
2013-09-21 18:45:00,82.0,48.4,29.50,South,180,0.0,-999.0,31,0.00,,,0.00,Wunderground v.1.15,2013-09-22 00:45:00,
2013-09-21 18:50:00,82.0,48.4,29.50,South,180,0.0,-999.0,31,0.00,,,0.00,Wunderground v.1.15,2013-09-22 00:50:00,
2013-09-21 18:55:00,80.4,50.2,29.50,N/A,-737280,0.0,-999.0,35,0.00,,,0.00,Wunderground v.1.15,2013-09-22 00:55:00,
2013-09-21 19:00:00,80.4,50.2,29.50,N/A,-737280,0.0,-999.0,35,0.00,,,0.00,Wunderground v.1.15,2013-09-22 01:00:00,
2013-09-21 19:05:00,78.7,49.5,29.51,South,180,0.0,-999.0,36,0.00,,,0.00,Wunderground v.1.15,2013-09-22 01:05:00,
2013-09-21 19:10:00,78.7,49.5,29.51,South,180,0.0,-999.0,36,0.00,,,0.00,Wunderground v.1.15,2013-09-22 01:10:00,
2013-09-21 19:15:00,76.9,47.9,29.52,SE,135,0.0,-999.0,36,0.00,,,0.00,Wunderground v.1.15,2013-09-22 01:15:00,
2013-09-21 19:20:00,76.9,47.9,29.52,SE,135,0.0,-999.0,36,0.00,,,0.00,Wunderground v.1.15,2013-09-22 01:20:00,
2013-09-21 19:25:00,76.1,47.9,29.52,N/A,-737280,0.0,-999.0,37,0.00,,,0.00,Wunderground v.1.15,2013-09-22 01:25:00,
2013-09-21 19:30:00,76.1,47.9,29.52,N/A,-737280,0.0,-999.0,37,0.00,,,0.00,Wunderground v.1.15,2013-09-22 01:30:00,
2013-09-21 19:35:00,75.2,47.1,29.53,N/A,-737280,0.0,-999.0,37,0.00,,,0.00,Wunderground v.1.15,2013-09-22 01:35:00,
2013-09-21 19:40:00,75.2,47.1,29.53,N/A,-737280,0.0,-999.0,37,0.00,,,0.00,Wunderground v.1.15,2013-09-22 01:40:00,
2013-09-21 19:45:00,75.1,47.8,29.53,SSE,158,0.0,-999.0,38,0.00,,,0.00,Wunderground v.1.15,2013-09-22 01:45:00,
2013-09-21 19:50:00,75.1,47.8,29.53,SSE,158,0.0,-999.0,38,0.00,,,0.00,Wunderground v.1.15,2013-09-22 01:50:00,
2013-09-21 19:55:00,74.4,46.4,29.53,SSE,158,1.0,-999.0,37,0.00,,,0.00,Wunderground v.1.15,2013-09-22 01:55:00,
2013-09-21 20:00:00,74.4,46.4,29.53,SSE,158,1.0,-999.0,37,0.00,,,0.00,Wunderground v.1.15,2013-09-22 02:00:00,
2013-09-21 20:05:00,74.5,45.8,29.49,SSE,158,1.0,-999.0,36,0.00,,,0.00,Wunderground v.1.15,2013-09-22 02:05:00,
2013-09-21 20:10:00,74.5,45.8,29.49,SSE,158,1.0,-999.0,36,0.00,,,0.00,Wunderground v.1.15,2013-09-22 02:10:00,
2013-09-21 20:15:00,74.5,45.8,29.49,SSE,158,2.0,-999.0,36,0.00,,,0.00,Wunderground v.1.15,2013-09-22 02:15:00,
2013-09-21 20:20:00,74.5,45.8,29.49,SSE,158,2.0,-999.0,36,0.00,,,0.00,Wunderground v.1.15,2013-09-22 02:20:00,
2013-09-21 20:25:00,73.3,46.8,29.50,SSE,158,0.0,-999.0,39,0.00,,,0.00,Wunderground v.1.15,2013-09-22 02:25:00,
2013-09-21 20:30:00,73.3,46.8,29.50,SSE,158,0.0,-999.0,39,0.00,,,0.00,Wunderground v.1.15,2013-09-22 02:30:00,
2013-09-21 20:35:00,71.7,46.7,29.51,N/A,-737280,0.0,-999.0,41,0.00,,,0.00,Wunderground v.1.15,2013-09-22 02:35:00,
2013-09-21 20:40:00,71.7,46.7,29.51,N/A,-737280,0.0,-999.0,41,0.00,,,0.00,Wunderground v.1.15,2013-09-22 02:40:00,
2013-09-21 20:45:00,71.0,46.7,29.52,SE,135,0.0,-999.0,42,0.00,,,0.00,Wunderground v.1.15,2013-09-22 02:45:00,
2013-09-21 20:50:00,71.0,46.7,29.52,SE,135,0.0,-999.0,42,0.00,,,0.00,Wunderground v.1.15,2013-09-22 02:50:00,
2013-09-21 20:55:00,72.3,45.9,29.52,SSE,158,1.0,-999.0,39,0.00,,,0.00,Wunderground v.1.15,2013-09-22 02:55:00,
2013-09-21 21:00:00,72.3,45.9,29.52,SSE,158,1.0,-999.0,39,0.00,,,0.00,Wunderground v.1.15,2013-09-22 03:00:00,
2013-09-21 21:05:00,76.5,46.0,29.46,South,180,11.0,-999.0,34,0.00,,,0.00,Wunderground v.1.15,2013-09-22 03:05:00,
2013-09-21 21:10:00,76.5,46.0,29.46,South,180,11.0,-999.0,34,0.00,,,0.00,Wunderground v.1.15,2013-09-22 03:10:00,
2013-09-21 21:15:00,76.5,46.0,29.46,SSW,203,8.0,-999.0,34,0.00,,,0.00,Wunderground v.1.15,2013-09-22 03:15:00,
2013-09-21 21:20:00,76.5,46.0,29.46,SSW,203,8.0,-999.0,34,0.00,,,0.00,Wunderground v.1.15,2013-09-22 03:20:00,
2013-09-21 21:25:00,76.1,45.7,29.47,South,180,6.0,-999.0,34,0.00,,,0.00,Wunderground v.1.15,2013-09-22 03:25:00,
2013-09-21 21:30:00,76.1,45.7,29.47,South,180,6.0,-999.0,34,0.00,,,0.00,Wunderground v.1.15,2013-09-22 03:30:00,
2013-09-21 21:35:00,75.7,46.8,29.48,South,180,6.0,-999.0,36,0.00,,,0.00,Wunderground v.1.15,2013-09-22 03:35:00,
2013-09-21 21:40:00,75.7,46.8,29.48,South,180,6.0,-999.0,36,0.00,,,0.00,Wunderground v.1.15,2013-09-22 03:40:00,
2013-09-21 21:45:00,75.0,47.7,29.49,South,180,5.0,-999.0,38,0.00,,,0.00,Wunderground v.1.15,2013-09-22 03:45:00,
2013-09-21 21:50:00,75.0,47.7,29.49,South,180,5.0,-999.0,38,0.00,,,0.00,Wunderground v.1.15,2013-09-22 03:50:00,
2013-09-21 21:55:00,74.9,47.6,29.49,South,180,7.0,-999.0,38,0.00,,,0.00,Wunderground v.1.15,2013-09-22 03:55:00,
2013-09-21 22:00:00,74.9,47.6,29.49,South,180,7.0,-999.0,38,0.00,,,0.00,Wunderground v.1.15,2013-09-22 04:00:00,
2013-09-21 22:05:00,74.9,47.6,29.45,South,180,7.0,-999.0,38,0.00,,,0.00,Wunderground v.1.15,2013-09-22 04:05:00,
2013-09-21 22:10:00,74.9,47.6,29.45,South,180,7.0,-999.0,38,0.00,,,0.00,Wunderground v.1.15,2013-09-22 04:10:00,
2013-09-21 22:15:00,74.8,48.2,29.45,SSE,158,7.0,-999.0,39,0.00,,,0.00,Wunderground v.1.15,2013-09-22 04:15:00,
2013-09-21 22:20:00,74.8,48.2,29.45,SSE,158,7.0,-999.0,39,0.00,,,0.00,Wunderground v.1.15,2013-09-22 04:20:00,
2013-09-21 22:25:00,74.5,47.9,29.45,SSE,158,7.0,-999.0,39,0.00,,,0.00,Wunderground v.1.15,2013-09-22 04:25:00,
2013-09-21 22:30:00,74.5,47.9,29.45,SSE,158,7.0,-999.0,39,0.00,,,0.00,Wunderground v.1.15,2013-09-22 04:30:00,
2013-09-21 22:35:00,73.9,48.1,29.46,SSE,158,3.0,-999.0,40,0.00,,,0.00,Wunderground v.1.15,2013-09-22 04:35:00,
2013-09-21 22:40:00,73.9,48.1,29.46,SSE,158,3.0,-999.0,40,0.00,,,0.00,Wunderground v.1.15,2013-09-22 04:40:00,
2013-09-21 22:45:00,73.3,48.2,29.47,SE,135,1.0,-999.0,41,0.00,,,0.00,Wunderground v.1.15,2013-09-22 04:45:00,
2013-09-21 22:50:00,73.3,48.2,29.47,SE,135,1.0,-999.0,41,0.00,,,0.00,Wunderground v.1.15,2013-09-22 04:50:00,
2013-09-21 22:55:00,72.4,48.0,29.46,ENE,68,0.0,-999.0,42,0.00,,,0.00,Wunderground v.1.15,2013-09-22 04:55:00,
2013-09-21 23:00:00,72.4,48.0,29.46,ENE,68,0.0,-999.0,42,0.00,,,0.00,Wunderground v.1.15,2013-09-22 05:00:00,
2013-09-21 23:05:00,71.3,48.3,29.45,NE,45,2.0,-999.0,44,0.00,,,0.00,Wunderground v.1.15,2013-09-22 05:05:00,
2013-09-21 23:10:00,71.3,48.3,29.45,NE,45,2.0,-999.0,44,0.00,,,0.00,Wunderground v.1.15,2013-09-22 05:10:00,
2013-09-21 23:15:00,70.3,49.1,29.45,NE,45,3.0,-999.0,47,0.00,,,0.00,Wunderground v.1.15,2013-09-22 05:15:00,
2013-09-21 23:20:00,70.3,49.1,29.45,NE,45,3.0,-999.0,47,0.00,,,0.00,Wunderground v.1.15,2013-09-22 05:20:00,
2013-09-21 23:25:00,69.9,49.3,29.45,NE,45,4.0,-999.0,48,0.00,,,0.00,Wunderground v.1.15,2013-09-22 05:25:00,
2013-09-21 23:30:00,69.9,49.3,29.45,NE,45,4.0,-999.0,48,0.00,,,0.00,Wunderground v.1.15,2013-09-22 05:30:00,
2013-09-21 23:35:00,69.8,49.2,29.45,ENE,68,2.0,-999.0,48,0.00,,,0.00,Wunderground v.1.15,2013-09-22 05:35:00,
2013-09-21 23:40:00,69.8,49.2,29.45,ENE,68,2.0,-999.0,48,0.00,,,0.00,Wunderground v.1.15,2013-09-22 05:40:00,
2013-09-21 23:45:00,69.3,49.3,29.44,ENE,68,0.0,-999.0,49,0.00,,,0.00,Wunderground v.1.15,2013-09-22 05:45:00,
2013-09-21 23:50:00,69.3,49.3,29.44,ENE,68,0.0,-999.0,49,0.00,,,0.00,Wunderground v.1.15,2013-09-22 05:50:00,
2013-09-21 23:55:00,68.3,49.5,29.45,N/A,-737280,0.0,-999.0,51,0.00,,,0.00,Wunderground v.1.15,2013-09-22 05:55:00,